Regional Weather Roundup
Issued by NWS

Home | Current Version | Previous Version | Text Only | Print | Product List | Glossary On
Versions: 1 2 3 4 5 6 7 8 9 10 11 12 13 14 15 16 17 18 19 20 21 22 23 24 25 26 27 28 29 30 31 32 33 34 35 36 37 38 39 40 41 42 43
000
ASUS44 KBMX 280610
RWRAL

ALABAMA REGIONAL WEATHER ROUNDUP
NATIONAL WEATHER SERVICE BIRMINGHAM AL
1200 AM CST SUN DEC 28 2014

NOTE: "FAIR" INDICATES FEW OR NO CLOUDS BELOW 12,000 FEET
WITH NO SIGNIFICANT WEATHER AND/OR OBSTRUCTIONS TO VISIBILITY.

THE REMARK "TC" DENOTES TEMPERATURE IN DEGREES CELSIUS.

ALZ001>011-014-016>018-020-280700-
NORTH ALABAMA

CITY           SKY/WX    TMP DP  RH WIND       PRES   REMARKS
MUSCLE SHOALS  LGT RAIN  54  51  90 SE3       30.04F
6HR MIN TEMP:  51; 6HR MAX TEMP:  55; 6HR PCP:  0.33;

HUNTSVILLE     RAIN      55  54  96 S7        30.07F FOG
6HR MIN TEMP:  53; 6HR MAX TEMP:  57; 6HR PCP:  0.21;

DECATUR        RAIN      54  52  93 S10       30.07F
6HR MIN TEMP:  52; 6HR MAX TEMP:  55; 6HR PCP:  0.25;

HALEYVILLE     RAIN      52  52 100 CALM      30.09F
6HR MIN TEMP:  50; 6HR MAX TEMP:  52; 6HR PCP:  0.34;

GADSDEN        CLOUDY    52  48  87 SW5       30.15R
6HR MIN TEMP:  52; 6HR MAX TEMP:  54; 6HR PCP:  0.62;

$$

ALZ012-013-022-023-030>036-040>044-280700-
WEST CENTRAL ALABAMA

CITY           SKY/WX    TMP DP  RH WIND       PRES   REMARKS
TUSCALOOSA     LGT RAIN  56  54  93 SE6       30.08F
6HR MIN TEMP:  53; 6HR MAX TEMP:  56; 6HR PCP:  1.45;

$$

ALZ015-024>027-033>036-040>044-280700-
CENTRAL ALABAMA

CITY           SKY/WX    TMP DP  RH WIND       PRES   REMARKS
BIRMINGHAM     HVY RAIN  55  54  96 SE8       30.13F FOG
6HR MIN TEMP:  52; 6HR MAX TEMP:  56; 6HR PCP:  1.50;

MONTGOMERY     LGT RAIN  57  52  83 SE7       30.10F
6HR MIN TEMP:  52; 6HR MAX TEMP:  60; 6HR PCP:  0.81;

SHELBY CO ARPT HVY RAIN  54  53  97 N3        30.13R FOG
6HR MIN TEMP:  51; 6HR MAX TEMP:  54; 6HR PCP:  1.50;

MAXWELL AFB    CLOUDY    57  55  94 SE7       30.09F
                                      6HR PCP:  0.61;

GREENVILLE     CLOUDY    55  51  86 SE5       30.10F
6HR MIN TEMP:  51; 6HR MAX TEMP:  59; 6HR PCP:  1.50;

$$

ALZ019-021-028-029-037-038-045>048-280700-
EAST CENTRAL ALABAMA

CITY           SKY/WX    TMP DP  RH WIND       PRES   REMARKS
ANNISTON       RAIN      53  51  93 N5        30.15R FOG
6HR MIN TEMP:  52; 6HR MAX TEMP:  54; 6HR PCP:  0.55;

ALEXANDER CITY TSTM      55  52  88 CALM      30.12F
6HR MIN TEMP:  54; 6HR MAX TEMP:  55; 6HR PCP:  0.51;

AUBURN         CLOUDY    52  48  87 S10       30.14F
6HR MIN TEMP:  50; 6HR MAX TEMP:  52; 6HR PCP:  0.52;

$$

ALZ051>064-280700-
SOUTHWEST ALABAMA

CITY           SKY/WX    TMP DP  RH WIND       PRES   REMARKS
MOBILE         CLOUDY    59  59 100 SE9       30.09F
6HR MIN TEMP:  58; 6HR MAX TEMP:  59; 6HR PCP:  0.24;

BROOKLEY FIELD CLOUDY    62  61  96 SE3       30.11F
6HR MIN TEMP:  60; 6HR MAX TEMP:  62; 6HR PCP:  0.66;

EVERGREEN      CLOUDY    56  51  84 SE5       30.12F
6HR MIN TEMP:  54; 6HR MAX TEMP:  56;

$$

ALZ049-050-065>069-280700-
SOUTHEAST ALABAMA

CITY           SKY/WX    TMP DP  RH WIND       PRES   REMARKS
DOTHAN         NOT AVBL
OZARK          CLOUDY    55  52  87 E5        30.13F
6HR MIN TEMP:  51; 6HR MAX TEMP:  55;

TROY           CLOUDY    57  51  80 SE6       30.13F
6HR MIN TEMP:  50; 6HR MAX TEMP:  57; 6HR PCP:  0.57;

EUFAULA        MOCLDY    54  53  97 S3        30.13F
6HR MIN TEMP:  54; 6HR MAX TEMP:  55; 6HR PCP:  0.11;

$$


USA.gov is the U.S. government's official web portal to all federal, state and local government web resources and services.